Location: Estes Park
(40.3770°N, 105.5210°W)
Time: 08:33:04
(UTC-06:00)

Tiangong 2 - Pass Details

Date: 10 October 2017
Orbit: 388 x 392 km, 42.8° (Epoch: 18 October)

Event Time Altitude Azimuth Distance (km) Brightness Sun altitude
Exits shadow 06:38:20 - 265° (W) 1,554 3.5 -6.5°
Reaches altitude 10° 06:38:41 10° 266° (W) 1,414 3.3 -6.4°
Maximum altitude 06:41:51 66° 349° (N) 428 1.2 -5.8°
Drops below altitude 10° 06:45:03 10° 72° (ENE) 1,418 5.3 -5.2°
Sets 06:47:08 0° 76° (ENE) 2,275 6.6 -4.8°
